Weather History for Torrington, WY

Change the Weather History Date:

Tuesday, February 5, 2013

  Actual Average Record
Temperature  
Mean Temperature 38 °F 30 °F  
Max Temperature 54 °F 44 °F 67 °F (2009)
Min Temperature 21 °F 16 °F -19 °F (2014)
Degree Days  
Heating Degree Days 27 35  
Month to date heating degree days 148 179  
Since 1 July heating degree days 3774 4074  
Cooling Degree Days 0 0  
Month to date cooling degree days 0 0  
Year to date cooling degree days 0 0  
Moisture  
Dew Point 18 °F    
Average Humidity 51    
Maximum Humidity 77    
Minimum Humidity 24    
Precipitation  
Precipitation 0.00 in 0.02 in 0.06 in (2011)
Month to date precipitation T 0.06  
Year to date precipitation 0.10 0.32  
Sea Level Pressure  
Sea Level Pressure 29.92 in    
Wind  
Wind Speed 6 mph (South)    
Max Wind Speed 16 mph    
Max Gust Speed 21 mph    
Visibility 10 miles    
Events      
T = Trace of Precipitation, MM = Missing Value Source: NWS Daily Summary

Daily Weather History Graph

Daily Weather History Graph

Search for Another Location

Airport:

Trip Planner

Search our weather history database for the weather conditions in past years. The results will help you decide how hot, cold, wet, or windy it might be!

Date:

Astronomy

Feb. 05, 2013 Rise Set
Actual Time 7:04 AM MST 5:17 PM MST
Civil Twilight 6:35 AM MST 5:46 PM MST
Nautical Twilight 6:02 AM MST 6:19 PM MST
Astronomical Twilight 5:29 AM MST 6:52 PM MST
Moon 2:51 AM MST (2/5) 12:34 PM MST (2/5)
Length of Visible Light 11h 10m
Length of Day
10h 12m
Waning Crescent, 26% of the Moon is Illuminated
Feb 5
Waning Crescent
Feb 10
New
Feb 17
First Quarter
Feb 25
Full
Mar 4
Last Quarter

Hourly Weather History & Observations

Time (MST) Temp. Windchill Dew Point Humidity Pressure Visibility Wind Dir Wind Speed Gust Speed Precip Events Conditions
12:53 AM 37.0 °F 29.3 °F 19.0 °F 48% 29.89 in 10.0 mi WNW 11.5 mph - N/A   Clear
1:53 AM 37.0 °F 28.9 °F 19.0 °F 48% 29.91 in 10.0 mi NNW 12.7 mph - N/A   Clear
2:53 AM 30.0 °F 25.2 °F 18.0 °F 61% 29.94 in 10.0 mi WNW 4.6 mph - N/A   Clear
3:53 AM 30.9 °F 22.8 °F 18.0 °F 59% 29.95 in 10.0 mi NNW 9.2 mph - N/A   Clear
4:53 AM 25.0 °F 14.8 °F 17.1 °F 72% 30.01 in 10.0 mi WNW 10.4 mph - N/A   Clear
5:53 AM 27.0 °F 19.5 °F 17.1 °F 66% 30.01 in 10.0 mi NNW 6.9 mph - N/A   Clear
6:53 AM 21.0 °F 13.4 °F 15.1 °F 78% 30.06 in 10.0 mi WNW 5.8 mph - N/A   Clear
7:53 AM 28.0 °F 20.0 °F 18.0 °F 66% 30.06 in 10.0 mi WNW 8.1 mph - N/A   Clear
8:53 AM 32.0 °F 28.7 °F 19.9 °F 61% 30.07 in 10.0 mi WNW 3.5 mph - N/A   Clear
9:53 AM 41.0 °F 39.0 °F 21.0 °F 45% 30.03 in 10.0 mi NNE 3.5 mph - N/A   Clear
10:53 AM 45.0 °F 40.6 °F 21.9 °F 40% 30.00 in 10.0 mi SSE 8.1 mph - N/A   Clear
11:53 AM 48.0 °F - 21.0 °F 34% 29.96 in 10.0 mi SE 5.8 mph - N/A   Clear
12:53 PM 48.9 °F - 19.9 °F 32% 29.92 in 10.0 mi Calm Calm - N/A   Clear
1:53 PM 51.1 °F - 19.9 °F 29% 29.86 in 10.0 mi Calm Calm - N/A   Partly Cloudy
2:53 PM 52.0 °F - 19.0 °F 27% 29.86 in 10.0 mi SSE 6.9 mph - N/A   Clear
3:53 PM 53.1 °F - 18.0 °F 25% 29.85 in 10.0 mi Calm Calm - N/A   Scattered Clouds
4:53 PM 51.1 °F - 16.0 °F 25% 29.86 in 10.0 mi SE 4.6 mph - N/A   Clear
5:53 PM 50.0 °F - 15.1 °F 25% 29.85 in 10.0 mi SSE 3.5 mph - N/A   Clear
6:53 PM 46.9 °F - 15.1 °F 28% 29.89 in 10.0 mi South 5.8 mph - N/A   Clear
7:53 PM 43.0 °F 38.8 °F 18.0 °F 37% 29.88 in 10.0 mi SSE 6.9 mph - N/A   Scattered Clouds
8:53 PM 39.9 °F 35.1 °F 19.0 °F 43% 29.86 in 10.0 mi SE 6.9 mph - N/A   Clear
9:53 PM 39.9 °F 37.8 °F 19.0 °F 43% 29.82 in 10.0 mi SSE 3.5 mph - N/A   Clear
10:53 PM 34.0 °F 28.8 °F 19.0 °F 54% 29.82 in 10.0 mi East 5.8 mph - N/A   Mostly Cloudy
11:53 PM 37.9 °F 33.5 °F 19.9 °F 48% 29.80 in 10.0 mi SE 5.8 mph - N/A   Overcast